Terminal Aerodrome Forecast
Issued by NWS

Current Version | Previous Version | Text Only | Print | Product List | Glossary On
Versions: 1 2 3 4 5 6 7 8 9 10 11 12 13 14 15 16 17 18
000
FTUS46 KSGX 201100
TAFCRQ
TAF
KCRQ 201120Z 2012/2112 VRB03KT P6SM OVC016
     FM201800 25008KT P6SM SCT018
     FM210300 VRB04KT P6SM OVC012=

USA.gov is the U.S. government's official web portal to all federal, state and local government web resources and services.